Location: McFarlands Corners
(41.4117°N, 81.3382°W)
Time: 20:24:07
(UTC+00:00)

SR - Pass Details

Date: 17 February 2026
Orbit: 572 x 848 km, 66.7° (Epoch: 8 March)

Event Time Altitude Azimuth Distance (km) Brightness Sun altitude
Rises 08:40:49 0° 163° (SSE) 2,762 - -40.7°
Reaches altitude 10° 08:43:55 10° 138° (SE) 1,877 - -40.2°
Maximum altitude 08:46:07 14° 106° (ESE) 1,642 - -39.8°
Drops below altitude 10° 08:48:21 10° 74° (ENE) 1,914 - -39.4°
Exits shadow 08:48:26 10° 73° (ENE) 1,932 ? -39.4°
Sets 08:51:34 0° 49° (NE) 2,859 ? -38.8°
